K5AGY Weather Reports


time (UTC)temp
C
wind
direction
speed
KPH
gust
KPH
rain 1hr
cm
rain 24hr
cm
rain mn
cm
humidity
%
barometer
mb
20260510104530 20 166 0.0 1.6 0.00 0.05 0.00 84 1010.9
20260510103001 20 168 0.0 1.6 0.00 0.05 0.00 83 1010.7
20260510101536 20 160 0.0 1.6 0.00 0.05 0.00 83 1010.6
20260510100008 20 155 0.0 3.2 0.00 0.05 0.00 82 1010.6
20260510094542 20 149 0.0 3.2 0.00 0.05 0.00 82 1010.8
20260510093018 20 181 0.0 3.2 0.00 0.05 0.00 82 1010.8
20260510091556 20 175 0.0 3.2 0.00 0.05 0.00 82 1010.7
20260510090024 20 186 0.0 4.8 0.00 0.05 0.00 81 1010.7
20260510084552 20 158 0.0 3.2 0.00 0.05 0.00 80 1010.7
20260510083020 21 141 0.0 4.8 0.00 0.05 0.00 80 1010.8
20260510081620 21 149 1.6 4.8 0.00 0.05 0.00 80 1010.7
20260510080027 21 134 1.6 8.0 0.00 0.05 0.00 79 1010.7
20260510074557 21 116 1.6 4.8 0.00 0.05 0.00 78 1010.6
20260510073029 21 112 0.0 1.6 0.00 0.05 0.00 77 1010.6
20260510071602 21 110 0.0 6.4 0.00 0.05 0.00 76 1010.6
20260510070134 21 165 0.0 3.2 0.00 0.05 0.00 76 1010.6
20260510064503 22 86 3.2 6.4 0.00 0.05 0.00 75 1011.0
20260510063041 22 123 0.0 4.8 0.00 0.05 0.00 75 1010.9
20260510061509 22 99 1.6 4.8 0.00 0.05 0.00 75 1011.0
20260510060043 22 110 1.6 8.0 0.00 0.05 0.00 75 1010.8
20260510054504 23 152 0.0 6.4 0.00 0.05 0.00 74 1010.6
20260510053041 23 134 1.6 8.0 0.00 0.05 0.00 74 1010.5
20260510051504 23 136 0.0 4.8 0.00 0.05 0.00 73 1010.4
20260510050033 23 121 3.2 8.0 0.00 0.05 0.00 73 1010.3
20260510044617 23 139 3.2 6.4 0.00 0.05 0.05 74 1010.2
20260510043050 23 113 1.6 6.4 0.00 0.05 0.05 73 1010.2
20260510041513 23 103 1.6 4.8 0.00 0.05 0.05 73 1010.1
20260510040053 24 96 0.0 3.2 0.00 0.05 0.05 72 1009.9
20260510034528 24 96 0.0 3.2 0.00 0.05 0.05 71 1009.8
20260510033004 25 99 0.0 3.2 0.00 0.05 0.05 70 1009.8
20260510031540 25 118 1.6 6.4 0.00 0.05 0.05 69 1009.6
20260510030014 25 116 4.8 12.9 0.00 0.05 0.05 69 1009.4
20260510024545 25 92 3.2 6.4 0.00 0.05 0.05 67 1009.1
20260510023020 25 72 1.6 3.2 0.00 0.05 0.05 67 1008.8
20260510021559 25 83 1.6 3.2 0.00 0.05 0.05 68 1008.7
20260510020033 24 74 0.0 1.6 0.00 0.05 0.05 69 1008.4
20260510014508 25 74 0.0 1.6 0.00 0.05 0.05 69 1008.1
20260510013047 26 75 0.0 1.6 0.00 0.05 0.05 64 1007.9
20260510011523 26 75 0.0 1.6 0.00 0.05 0.05 61 1007.7
20260510010059 27 75 0.0 9.7 0.00 0.05 0.05 59 1007.9
20260510004538 28 56 3.2 9.7 0.00 0.05 0.05 56 1008.0
20260510003011 30 78 1.6 4.8 0.00 0.05 0.05 56 1008.0
20260510001548 31 113 0.0 6.4 0.00 0.05 0.05 54 1007.8
20260510000026 32 111 3.2 12.9 0.00 0.05 0.05 51 1007.7
20260509234602 33 124 0.0 3.2 0.00 0.05 0.05 47 1007.5
20260509233032 33 207 1.6 6.4 0.00 0.05 0.05 46 1007.2
20260509231508 33 228 1.6 6.4 0.00 0.05 0.05 43 1007.3
20260509230042 33 136 0.0 3.2 0.00 0.05 0.05 42 1007.3
20260509224511 33 195 1.6 6.4 0.00 0.05 0.05 44 1007.1
20260509223052 33 219 3.2 6.4 0.00 0.05 0.05 45 1007.3
20260509221521 32 118 0.0 4.8 0.00 0.05 0.05 51 1007.0
20260509220059 33 111 1.6 4.8 0.00 0.05 0.05 50 1006.9
20260509214531 33 98 0.0 6.4 0.00 0.05 0.05 50 1006.9
20260509213103 32 272 0.0 4.8 0.00 0.05 0.05 52 1007.3
20260509211536 32 85 1.6 11.3 0.00 0.05 0.05 52 1007.7
20260509210016 31 314 3.2 9.7 0.00 0.05 0.05 55 1008.0
20260509204542 31 264 0.0 8.0 0.00 0.05 0.05 54 1008.1
20260509203018 31 185 0.0 8.0 0.00 0.05 0.05 53 1008.3
20260509201600 31 283 3.2 9.7 0.00 0.05 0.05 53 1008.3
20260509200022 31 283 6.4 12.9 0.00 0.05 0.05 55 1008.4
20260509194557 31 286 3.2 11.3 0.00 0.05 0.05 54 1008.6
20260509193037 30 278 4.8 12.9 0.00 0.05 0.05 58 1008.8
20260509191508 30 278 4.8 9.7 0.00 0.05 0.05 61 1009.0
20260509190040 30 288 3.2 11.3 0.00 0.05 0.05 61 1009.3
20260509184508 29 315 4.8 9.7 0.00 0.05 0.05 65 1009.3
20260509183043 29 287 6.4 11.3 0.00 0.05 0.05 62 1009.6
20260509181514 28 231 3.2 8.0 0.00 0.05 0.05 64 1009.9
20260509180051 28 212 3.2 8.0 0.00 0.05 0.05 65 1010.1
20260509174529 28 222 3.2 8.0 0.00 0.05 0.05 64 1010.4
20260509173109 28 297 0.0 9.7 0.00 0.05 0.05 67 1010.5
20260509171541 28 244 0.0 6.4 0.00 0.05 0.05 68 1010.7
20260509170002 27 266 3.2 8.0 0.00 0.05 0.05 67 1010.7
20260509164535 27 122 0.0 6.4 0.00 0.05 0.05 71 1010.6
20260509163124 26 214 1.6 4.8 0.00 0.05 0.05 73 1010.6
20260509161529 26 285 1.6 8.0 0.00 0.05 0.05 78 1010.5
20260509160053 25 293 3.2 9.7 0.00 0.05 0.05 82 1010.5
20260509154520 24 316 1.6 3.2 0.00 0.05 0.05 83 1010.7
20260509153057 24 75 1.6 6.4 0.00 0.05 0.05 83 1010.2
20260509151528 24 72 1.6 6.4 0.00 0.05 0.05 84 1009.8
20260509150001 23 283 0.0 3.2 0.00 0.05 0.05 85 1010.6
20260509144610 23 249 0.0 3.2 0.00 0.05 0.05 86 1010.7
20260509143008 23 227 1.6 8.0 0.00 0.05 0.05 86 1010.4
20260509141544 23 228 4.8 9.7 0.00 0.05 0.05 86 1010.1
20260509140009 23 233 1.6 3.2 0.00 0.05 0.05 86 1010.0
20260509134548 23 28 1.6 3.2 0.00 0.05 0.05 86 1009.5
20260509133022 23 51 1.6 6.4 0.00 0.05 0.05 86 1009.4
20260509131559 23 100 1.6 4.8 0.05 0.05 0.05 86 1010.0
20260509130036 23 346 0.0 1.6 0.05 0.05 0.05 86 1011.0
20260509124511 22 316 1.6 3.2 0.05 0.05 0.05 86 1011.0
20260509123046 22 110 0.0 3.2 0.05 0.05 0.05 86 1010.6
20260509121527 22 32 0.0 3.2 0.00 0.00 0.00 86 1010.7
20260509120107 22 89 0.0 4.8 0.00 0.00 0.00 86 1010.7
20260509114533 22 44 1.6 4.8 0.00 0.00 0.00 86 1010.4
20260509113011 22 31 0.0 3.2 0.00 0.00 0.00 86 1009.9
20260509111548 22 35 0.0 1.6 0.00 0.00 0.00 86 1009.4
20260509110025 22 66 0.0 6.4 0.00 0.00 0.00 86 1009.4